Simultaneous Nadir Overpasses (SNOs) Predictions

Prediction of SNOs between FY3D and METOP-A Satellite Orbit:

Table of predicted SNOs for the next 14.0 days since TLE Epoch: 7/4/2021
Index Date (FY3D) Time (FY3D) Lat,Lon (FY3D) SZA (FY3D ) Date (METOP-A) Time (METOP-A) Lat,Lon (METOP-A) SZA (METOP-A ) Distance(km) Time Diff (sec)
1 07/17/2021 14:28:07 77.59, -56.71 57.37 07/17/2021 14:29:15 77.56, -54.08 57.11 62.92 68
2 07/17/2021 15:18:49 -77.48, 111.12 122.77 07/17/2021 15:20:00 -77.42, 112.59 122.98 36.52 71
3 07/17/2021 16:09:29 77.30, -80.74 57.00 07/17/2021 16:10:43 77.28, -80.63 56.95 3.20 74
4 07/17/2021 17:00:13 -77.27, 86.69 123.03 07/17/2021 17:01:25 -77.27, 86.62 123.06 1.93 72
5 07/17/2021 17:50:57 77.26,-105.93 56.96 07/17/2021 17:52:05 77.26,-106.05 56.95 2.99 68
6 07/17/2021 18:41:42 -77.28, 61.31 123.01 07/17/2021 18:42:46 -77.29, 61.38 123.03 2.30 64
7 07/17/2021 19:32:26 77.26,-131.31 56.98 07/17/2021 19:33:26 77.29,-131.29 56.98 2.97 60
8 07/17/2021 20:23:11 -77.28, 35.92 123.00 07/17/2021 20:24:08 -77.27, 35.96 123.03 1.36 57
9 07/17/2021 21:13:55 77.26,-156.69 56.99 07/17/2021 21:14:48 77.27,-156.71 56.98 0.64 53
10 07/17/2021 22:04:40 -77.28, 10.54 122.98 07/17/2021 22:05:30 -77.25, 10.54 123.03 3.53 50
11 07/17/2021 22:55:24 77.27, 177.92 57.01 07/17/2021 22:56:10 77.25, 177.86 56.98 2.52 46
12 07/17/2021 23:46:09 -77.28, -14.84 122.97 07/17/2021 23:46:51 -77.27, -14.70 123.00 3.48 42
13 07/18/2021 00:36:53 77.27, 152.54 57.03 07/18/2021 00:37:31 77.27, 152.62 57.01 2.05 38
14 07/18/2021 01:27:37 -77.25, -40.03 123.00 07/18/2021 01:28:13 -77.26, -40.13 123.00 2.56 36
15 07/18/2021 02:18:22 77.27, 127.16 57.04 07/18/2021 02:18:53 77.25, 127.20 57.01 2.36 31
16 07/18/2021 03:09:06 -77.25, -65.41 122.99 07/18/2021 03:09:35 -77.24, -65.55 123.00 3.53 29
17 07/18/2021 03:59:51 77.28, 101.78 57.06 07/18/2021 04:00:14 77.28, 101.96 57.04 4.50 23



Historial Predications of SNOs between FY3D and METOP-A
